User: anonymous   Login
Location: Mohawk View
(42.7837°N, 73.7885°W)
Time: 03:58:27
(UTC+00:00)
Language:

Cosmos 2150 Rocket - Orbit

View from above orbital plane
View from above orbital plane
View from above satellite
View from above satellite

Ground track
Ground track

The orbit data is extracted from the following two-line orbital elements,

1 21419U 91041B   21261.50133464  .00000044  00000-0  24843-4 0  9993
2 21419  74.0415 336.3274 0042002 244.9997 114.6790 14.34013465583252
Epoch (UTC): 18 September 2021 12:01:55
Eccentricity: 0.0042002
inclination: 74.0415°
perigee height: 748 km
apogee height: 808 km
right ascension of ascending node: 336.3274°
argument of perigee: 244.9997°
revolutions per day: 14.34013465
mean anomaly at epoch: 114.6790°
orbit number at epoch: 58325

The dashed part of the orbit path shows where the satellite is in the earth's shadow,  

DLR